Weather History for Iron Mountain, MI

Change the Weather History Date:

Sunday, January 20, 2013

  Actual Average Record
Temperature  
Mean Temperature 5 °F -  
Max Temperature 10 °F 23 °F 42 °F (1964)
Min Temperature -2 °F 1 °F -23 °F (1985)
Degree Days  
Heating Degree Days 60    
Moisture  
Dew Point -5 °F    
Average Humidity 65    
Maximum Humidity 72    
Minimum Humidity 48    
Precipitation  
Precipitation 0.00 in - - ()
Sea Level Pressure  
Sea Level Pressure 30.09 in    
Wind  
Wind Speed 16 mph (WNW)    
Max Wind Speed 25 mph    
Max Gust Speed 37 mph    
Visibility 9 miles    
Events Snow    
Averages and records for this station are not official NWS values.
T = Trace of Precipitation, MM = Missing Value Source: NWS Daily Summary

Daily Weather History Graph

Daily Weather History Graph

Search for Another Location

Airport:

Trip Planner

Search our weather history database for the weather conditions in past years. The results will help you decide how hot, cold, wet, or windy it might be!

Date:

Astronomy

Jan. 20, 2013 Rise Set
Actual Time 7:26 AM CST 4:41 PM CST
Civil Twilight 6:53 AM CST 5:14 PM CST
Nautical Twilight 6:16 AM CST 5:50 PM CST
Astronomical Twilight 5:41 AM CST 6:26 PM CST
Moon 11:43 AM CST (1/20) 1:56 AM CST (1/20)
Length of Visible Light 10h 21m
Length of Day
9h 15m
Waxing Gibbous, 66% of the Moon is Illuminated
Jan 20
Waxing Gibbous
Jan 26
Full
Feb 3
Last Quarter
Feb 10
New
Feb 17
First Quarter

Hourly Weather History & Observations

Time (CST) Temp. Windchill Dew Point Humidity Pressure Visibility Wind Dir Wind Speed Gust Speed Precip Events Conditions
12:54 AM 7.0 °F -12.6 °F -2.9 °F 64% 29.83 in 10.0 mi WNW 19.6 mph 35.7 mph N/A   Clear
1:51 AM 6.8 °F -12.9 °F -2.2 °F 67% 29.82 in 10.0 mi NW 19.6 mph 28.8 mph N/A   Mostly Cloudy
1:54 AM 7.0 °F -14.9 °F -2.0 °F 67% 29.89 in 10.0 mi NW 25.3 mph 32.2 mph N/A   Mostly Cloudy
2:18 AM 6.8 °F -13.4 °F -2.2 °F 67% 29.85 in 9.0 mi NW 20.7 mph 34.5 mph N/A   Scattered Clouds
2:54 AM 7.0 °F -13.6 °F -2.0 °F 67% 29.94 in 7.0 mi NW 21.9 mph 36.8 mph N/A   Clear
3:54 AM 6.1 °F -15.2 °F -2.9 °F 67% 29.98 in 10.0 mi NW 23.0 mph 33.4 mph N/A   Partly Cloudy
4:54 AM 6.1 °F -15.2 °F -5.1 °F 60% 30.01 in 10.0 mi NW 23.0 mph 31.1 mph N/A   Clear
5:54 AM 5.0 °F -13.0 °F -4.0 °F 66% 30.06 in 10.0 mi NW 15.0 mph 23.0 mph N/A   Mostly Cloudy
6:54 AM 5.0 °F -12.3 °F -2.9 °F 70% 30.10 in 3.0 mi NW 13.8 mph - 0.00 in Snow Light Snow
7:03 AM 5.0 °F -10.8 °F -2.2 °F 72% 30.03 in 4.0 mi NW 11.5 mph - 0.00 in Snow Light Snow
7:54 AM 3.9 °F -13.7 °F -5.1 °F 66% 30.14 in 10.0 mi NW 13.8 mph - 0.00 in   Mostly Cloudy
8:24 AM 3.2 °F -11.3 °F -4.0 °F 72% 30.08 in 10.0 mi NW 9.2 mph - N/A   Overcast
8:54 AM 5.0 °F -13.0 °F -4.0 °F 66% 30.17 in 10.0 mi WNW 15.0 mph 20.7 mph N/A   Overcast
9:05 AM 6.8 °F -9.3 °F -4.0 °F 61% 30.09 in 10.0 mi WNW 12.7 mph - N/A   Overcast
9:54 AM 6.1 °F -7.8 °F -4.0 °F 63% 30.18 in 10.0 mi West 9.2 mph 21.9 mph 0.00 in   Overcast
10:17 AM 5.0 °F -9.1 °F -2.2 °F 72% 30.10 in 10.0 mi West 9.2 mph - 0.00 in   Overcast
10:24 AM 6.8 °F -6.9 °F -2.2 °F 67% 30.10 in 10.0 mi West 9.2 mph - 0.00 in   Overcast
10:54 AM 6.1 °F -8.7 °F -2.9 °F 67% 30.20 in 10.0 mi West 10.4 mph 18.4 mph 0.00 in   Overcast
12:54 PM 9.0 °F -8.5 °F -5.1 °F 53% 30.18 in 9.0 mi WNW 16.1 mph 23.0 mph N/A   Overcast
1:54 PM 9.0 °F -6.6 °F -5.1 °F 53% 30.18 in 10.0 mi WNW 12.7 mph 18.4 mph 0.00 in   Mostly Cloudy
2:54 PM 10.0 °F -4.5 °F -5.1 °F 51% 30.17 in 10.0 mi West 11.5 mph - N/A   Overcast
3:54 PM 9.0 °F -5.1 °F -7.1 °F 48% 30.18 in 10.0 mi WNW 10.4 mph - N/A   Mostly Cloudy
4:54 PM 7.0 °F -7.5 °F -5.1 °F 58% 30.18 in 10.0 mi West 10.4 mph - N/A   Overcast
5:54 PM 3.9 °F -5.3 °F -6.0 °F 64% 30.19 in 10.0 mi West 4.6 mph - N/A   Clear
6:54 PM 3.0 °F -6.4 °F -5.1 °F 69% 30.19 in 10.0 mi West 4.6 mph - N/A   Clear
7:54 PM 1.0 °F - -7.1 °F 69% 30.19 in 10.0 mi Calm Calm - N/A   Clear
8:54 PM -0.0 °F -9.9 °F -8.0 °F 69% 30.18 in 10.0 mi West 4.6 mph - N/A   Clear
9:54 PM -0.9 °F -16.4 °F -8.0 °F 72% 30.15 in 10.0 mi WNW 9.2 mph - N/A   Clear
10:54 PM -0.9 °F -16.4 °F -9.9 °F 66% 30.13 in 10.0 mi West 9.2 mph - N/A   Clear
11:54 PM -2.0 °F -15.4 °F -9.9 °F 69% 30.12 in 10.0 mi West 6.9 mph - N/A   Overcast